Regional Weather Roundup
Issued by NWS Newport/Morehead, NC

Home | Current Version | Previous Version | Text Only | Print | Product List | Glossary On
Versions: 1 2 3 4 5 6 7 8 9 10 11 12 13 14 15 16 17 18 19 20 21 22 23 24 25 26 27 28 29 30 31 32 33 34 35 36 37 38 39 40 41 42 43 44 45 46 47 48 49 50
000
ASUS42 KMHX 270625
RWRMHX
WEATHER ROUNDUP FOR EASTERN NORTH CAROLINA
NATIONAL WEATHER SERVICE NEWPORT/MOREHEAD CITY NC
200 AM EDT WED JUL 27 2016

NOTE: "FAIR" INDICATES FEW OR NO CLOUDS BELOW 12,000 FEET
WITH NO SIGNIFICANT WEATHER AND/OR OBSTRUCTIONS TO VISIBILITY

NCZ015>017-031-032-045>047-102-103-270700-
NORTH COAST

CITY           SKY/WX    TMP DP  RH WIND       PRES   REMARKS
EDENTON        MOCLDY    85  79  83 W6        29.97R
ELIZABETH CITY CLOUDY    77  75  93 SW5       29.95S
KITTY HAWK     PTCLDY    81  77  87 SW6       29.94F
MANTEO           N/A     81  78  92 W8        29.95F

$$

NCZ045>047-081-094-103-104-270700-
CENTRAL COAST

CITY           SKY/WX    TMP DP  RH WIND       PRES   REMARKS
FRISCO         PTCLDY    82  78  88 W9        29.96F

$$

NCZ095-097-098-100-101-270700-
SOUTHERN COAST

CITY           SKY/WX    TMP DP  RH WIND       PRES   REMARKS
BEAUFORT       CLEAR     82  78  88 SW13      29.98F
CEDAR ISLAND   NOT AVBL
JACKSONVILLE   CLEAR     79  74  84 SW7       29.98S
PINEY ISLAND   NOT AVBL
WILMINGTON     CLEAR     80  76  87 SW8       29.99F


$$

NCZ011>013-027>030-043-044-078>080-089-090>093-098-270700-
COASTAL PLAIN

CITY           SKY/WX    TMP DP  RH WIND       PRES   REMARKS
AHOSKIE        CLOUDY    75  74  97 CALM      29.98F
CLINTON        CLEAR     80  76  90 CALM      29.99S
ELIZABETHTOWN  CLEAR     80  76  85 SW3       29.99S
GOLDSBORO      PTCLDY    81  80  96 SW6       29.96F
GREENVILLE     CLOUDY    81  77  89 CALM      29.99S
HAVELOCK       CLEAR     79  74  84 SW7       29.98F
KENANSVILLE    NOT AVBL
KINSTON        CLOUDY    80  75  83 SW7       29.98S
NEW BERN       CLOUDY    79  73  82 SW6       29.99S
RICHLANDS      CLEAR     77  75  93 SW5       29.99S
ROCKY MOUNT    CLOUDY    80  77  90 N14       29.99R
WASHINGTON     CLOUDY    80  74  82 SW5       29.96F
WHITEVILLE     MOCLDY    80  74  81 SW5       29.99S

$$

AMZ130-135-150-152-154-156-158-170-250-252-270-ANZ085-086-088-633-658-670-270700-
MARINE OBSERVATIONS

STATION/POSITION TIME  TEMP    WIND        PRES    WAVE   SWELL
                       AIR SEA DIR/SP/G            HT/PER HT/PER
                 (UTC) (F)     (DEG/KT/KT) (MB)    (FT/S) (FT/S)
CHESAPEAKE LIGHT NOT AVBL
64 E VA BEACH    0550   81 80  210/ 10/ 12 1013.5    3/ 6   3/ 6
DUCK             0600   84 64  230/ 12/ 15 1013.2
2 E DUCK         0611      69                N/A     1/ 8
OREGON INLET     0600   84 84  230/ 12/ 15 1013.8
13E OREGON INLT  0600      82                N/A     3/ 6   2/12
HATTERAS CG      0600   81 83  230/  9/ 12 1014.1
DIAMOND BUOY     0550   84 84  240/ 17/ 21 1014.2    5/ 6
CAPE LOOKOUT     0600   83     240/  9/ 14 1015.0
BEAUFORT LAB     0600   82 83  240/  5/  9 1014.5
30 SE NEW RVR IN 0608   84 85  240/ 16/ 21 1015.5
30 SE NEW RVR IN 0525      85                N/A     4/ 5
27 SE WRIGHTSVLE 0608   84 84  240/ 14/ 19 1015.8
5 SE WRIGHTSVLE  0608   81 80  250/  8/ 10 1016.3
225 S CAPE HAT   0550   84 84  240/ 14/ 16 1017.4    3/ 7   2/ 7
41 SE CHARLESTON 0550   85 86  230/ 17/ 21 1016.1    3/ 4   2/ 8

$$




USA.gov is the U.S. government's official web portal to all federal, state and local government web resources and services.